AirNav   TITAN Aviation Fuels
 
 448 users online  

KMPI Mariposa-Yosemite Airport
Mariposa, California, USA

GOING TO MARIPOSA?


FAA INFORMATION EFFECTIVE 23 FEBRUARY 2023

Location

FAA Identifier: MPI
Lat/Long: 37-30-39.1000N 120-02-22.3000W
37-30.651667N 120-02.371667W
37.5108611,-120.0395278
(estimated)
Elevation: 2254.2 ft. / 687.1 m (surveyed)
Variation: 15E (1985)
From city: 4 miles W of MARIPOSA, CA
Time zone: UTC -7 (UTC -8 during Standard Time)
Zip code: 95338

Airport Operations

Airport use: Open to the public
Activation date: 04/1940
Control tower: no
ARTCC: OAKLAND CENTER
FSS: RANCHO MURIETA FLIGHT SERVICE STATION
NOTAMs facility: RIU (NOTAM-D service available)
Attendance: MON-FRI 1000-1600, ALL SAT-SUN 1000-1400
Wind indicator: lighted
Segmented circle: yes
Lights: ACTVT PAPI RWY 08 & 26; MIRL RWY 08/26 - CTAF.
Beacon: white-green (lighted land airport)
Operates sunset to sunrise.

Airport Communications

CTAF/UNICOM: 122.7
WX AWOS-3: 135.6 (209-966-2912)
  • APCH/DEP CTL SVC PRVDD BY OAKLAND ARTCC (ZOA) ON FREQ 121.25/327.0 (ANGELS CAMP RCAG).

Nearby radio navigation aids

VOR radial/distance  VOR name  Freq  Var
HYPr030/24.5EL NIDO VOR/DME114.2015E
FRAr302/32.3FRIANT VORTAC115.6017E

Airport Services

Fuel available: 100LL JET-A
100LL:FUEL AVBL 24 HRS WITH CREDIT CARD.
Parking: tiedowns
Airframe service: MINOR
Powerplant service: MINOR
Bottled oxygen: NONE
Bulk oxygen: NONE

Runway Information

Runway 8/26

Dimensions: 3305 x 60 ft. / 1007 x 18 m
Surface: asphalt, in fair condition
Weight bearing capacity: 
Single wheel: 12.0
Runway edge lights: medium intensity
RUNWAY 8  RUNWAY 26
Latitude: 37-30.698043N37-30.606395N
Longitude: 120-02.709322W120-02.035483W
Elevation: 2254.2 ft.2222.9 ft.
Traffic pattern: rightleft
Runway heading: 085 magnetic, 100 true265 magnetic, 280 true
Markings: nonprecision, in good conditionnonprecision, in good condition
Visual slope indicator: 2-light PAPI on left (4.00 degrees glide path)2-light PAPI on left (4.50 degrees glide path)
Runway end identifier lights: nono
Touchdown point: yes, no lightsyes, no lights
Obstructions: 45 ft. tree, 1340 ft. from runway, 130 ft. right of centerline, 25:1 slope to clear29 ft. tree, 762 ft. from runway, 83 ft. left of centerline, 20:1 slope to clear

Airport Ownership and Management from official FAA records

Ownership: Publicly-owned
Owner: COUNTY OF MARIPOSA
4639 BEN HUR ROAD
MARIPOSA, CA 95338
Phone 209-966-5356
Manager: ANTHONY BORRESON
5020 MACREADY WAY
MARIPOSA, CA 95338
Phone (209) 966-2143
WWW.YOSEMITEAVIATION.COM

Airport Operational Statistics

Aircraft based on the field: 15
Single engine airplanes: 15
    
Aircraft operations: avg 26/day *
66% local general aviation
33% transient general aviation
1% air taxi
* for 12-month period ending 13 June 2019

Additional Remarks

TRANSITIONAL SURFACE OBSTRUCTION: MOUNTAINS TO NORTH OF RWY 08/26.
RY 08 TERRAIN DROPS ALONG BOTH SIDES OF TWY 45 FT FM RY EDGE.
BIRDS ON AND INVOF ARPT.
FOR CD CTC OAKLAND ARTCC AT 510-745-3380.

Instrument Procedures

NOTE: All procedures below are presented as PDF files. If you need a reader for these files, you should download the free Adobe Reader.

NOT FOR NAVIGATION. Please procure official charts for flight.
FAA instrument procedures published for use from 23 February 2023 at 0901Z to 23 March 2023 at 0900Z.

 
IAPs - Instrument Approach Procedures
RNAV (GPS)-A   download (254KB)
RNAV (GPS)-B   download (263KB)
NOTE: Special Take-Off Minimums/Departure Procedures apply   download (128KB)

Other nearby airports with instrument procedures:

E45 - Pine Mountain Lake Airport (22 nm N)
KMCE - Merced Yosemite Regional Airport (26 nm SW)
KMER - Castle Airport (26 nm W)
KMAE - Madera Municipal Airport (32 nm S)
O22 - Columbia Airport (36 nm NW)
 
Loc | Ops | Rwys | IFR | FBO | Links
Com | Nav | Svcs | Stats | Notes
Area around KMPI (Mariposa-Yosemite Airport)
 
Road maps at: MapQuest Bing Google
 
Aerial photo
WARNING: Photo may not be current or correct
Aerial photo of KMPI (Mariposa-Yosemite Airport)
Photo by David Newcomer
Photo taken 27-Oct-2014
from 2,000 AGL looking northeast.

Do you have a better or more recent aerial photo of Mariposa-Yosemite Airport that you would like to share? If so, please send us your photo.

 
Sectional chart

 
Airport distance calculator
Flying to Mariposa-Yosemite Airport? Find the distance to fly.

From to KMPI

Sunrise and sunset
Times for 21-Mar-2023
 Local
(UTC-7)
 Zulu
(UTC)
Morning civil twilight06:3713:37
Sunrise07:0314:03
Sunset19:1202:12
Evening civil twilight19:3802:38

Current date and time
Zulu (UTC)  22-Mar-2023 06:54:51
Local (UTC-7)  21-Mar-2023 23:54:51
 
METAR
KMCE 
26nm SW 
220553Z AUTO 14013KT 10SM OVC055 10/07 A2962 RMK AO2 SLP032 T01000072 10133 20100 53032
KMER 
26nm W 
220635Z AUTO 15014KT 10SM BKN046 OVC060 11/11 A2965 RMK AO1
KMAE 
32nm S 
220553Z AUTO 13011G19KT 10SM BKN065 10/07 A2966 RMK AO2 SLP043 60000 T01000072 10122 20094 51031 TSNO $
KO22 
36nm NW 
220635Z AUTO VRB05G16KT 10SM BKN026 OVC034 07/03 A2961 RMK A01
KMOD 
44nm W 
220553Z AUTO 13007KT 10SM FEW070 OVC090 08/07 A2960 RMK AO2 SLP023 60031 T00830072 10133 20083 51031
KFAT 
46nm S 
220553Z 13015KT 10SM SCT011 SCT016 BKN048 09/07 A2969 RMK AO2 RAE10 SLP052 P0000 60002 T00890067 10111 20089 53027
TAF
KMCE 
26nm SW 
220627Z 2206/2306 16015G24KT P6SM FEW009 BKN080 FM220800 13015G24KT P6SM -RA OVC030 FM221700 14019G25KT P6SM OVC030 FM221900 14018G25KT P6SM -RA OVC025
KMER 
26nm W 
220627Z 2206/2306 16015G24KT P6SM FEW009 BKN080 FM220800 13015G24KT P6SM -RA OVC030 FM221700 14019G25KT P6SM OVC030 FM221900 14018G25KT P6SM -RA OVC025
NOTAMs
Click for the latest NOTAMs
NOTAMs are issued by the DoD/FAA and will open in a separate window not controlled by AirNav.

 

 
 

FBO, Fuel Providers, and Aircraft Ground Support

  
 Business Name 
 
 Contact 
 
 Services / Description 
 
Fuel Prices
 
Comments
  
 Airborrn Aviation Services, LLC
209-966-2143
[web site]
[email]

Like us on facebook
Airport management, Aviation fuel, Aircraft parking (ramp or tiedown), Flight training, Aircraft rental, Aerial tours / aerial sightseeing, Aerial photography, ...

More info about Airborrn Aviation Services, LLC
Titan
100LL Jet A
AS --- $6.60 
SS $5.88 --- 
 Updated 20-Mar-2023
 
   1 read write
AS=Assisted/Self Service
SS=Self service
Update Fuel Prices
 

Getting Around: Taxi, Limo, Rental Cars, Mass Transit

  
 Business Name 
 
 Contact 
 
Services / Description
 
Comments
  
YARTS [web site]
no information available

If you are affiliated with YARTS and would like to show here your services, contact info, web link, logo, and more, click here
 
   write
 

Would you like to see your business listed on this page?

 If your business provides an interesting product or service to pilots, flight crews, aircraft, or users of the Mariposa-Yosemite Airport, you should consider listing it here.  To start the listing process, click on the button below
 
Add a business
 

Other Pages about Mariposa-Yosemite Airport

www.mariposayosemiteairport.com
 
Update a link
 
Copyright © AirNav, LLC. All rights reserved. Privacy Policy  Contact